Tracking 35035 objects as of 16-Aug-2026
HD Live streaming from Space Station
objects crossing your sky now

SL-8 DEB


SL-8 DEB is no longer on orbit


NORAD ID: 1416
Int'l Code: 1965-020AS
Launch date: March 15, 1965
Source: Commonwealth of Independent States (former USSR) (CIS)
Launch site: TYURATAM MISSILE AND SPACE COMPLEX (TTMTR)
Decay date: 1967-05-05

Note: This is SATELLITE DEBRIS
Your satellite tracking list
Your tracking list is empty




NASA's NSSDC Master Catalog

Two Line Element Set (TLE):
1 01416U 65020 AS 67107.57006247  .00962966 +00000-0 +00000-0 0  9995
2 01416 056.1047 132.0174 0221485 030.6232 330.7434 15.57479235107283
Source of the keplerian elements: AFSPC